Hermiston, OR

1:51 AM PDT on May 27, 2017 (GMT -0700)
Hermiston Municipal

Weather History for KHRI - July, 2013

Change the Weather History Date:

Sunday, July 7, 2013

  Actual Average Record
Temperature  
Mean Temperature 73 °F 72 °F  
Max Temperature 95 °F 89 °F 107 °F (1968)
Min Temperature 53 °F 55 °F 40 °F (1971)
Cooling Degree Days 8    
Growing Degree Days 23 (Base 50)    
Moisture  
Dew Point 47 °F    
Average Humidity 43    
Maximum Humidity 83    
Minimum Humidity 15    
Precipitation  
Precipitation 0.00 in 0.02 in 0.23 in (1948)
Month to date precipitation 0.11  
Year to date precipitation 6.13  
Sea Level Pressure  
Sea Level Pressure 29.77 in    
Wind  
Wind Speed 4 mph (West)    
Max Wind Speed 12 mph    
Max Gust Speed -    
Visibility 10 miles    
Events      
T = Trace of Precipitation, MM = Missing Value Source: NWS Daily Summary

Daily Weather History Graph

Daily Weather History Graph

Search for Another Location

Airport or City:

Trip Planner

Search our weather history database for the weather conditions in past years. The results will help you decide how hot, cold, wet, or windy it might be!

Date:

Astronomy

Jul. 07, 2013 Rise Set
Actual Time 5:15 AM PDT 8:48 PM PDT
Civil Twilight 4:37 AM PDT 9:26 PM PDT
Nautical Twilight 3:47 AM PDT 10:15 PM PDT
Astronomical Twilight 2:41 AM PDT 11:21 PM PDT
Moon 4:59 AM PDT (7/7) 8:11 PM PDT (7/7)
Length of Visible Light 16h 48m
Length of Day
15h 33m
Waning Crescent, 0% of the Moon is Illuminated
Jul 7
Waning Crescent
Jul 8
New
Jul 15
First Quarter
Jul 22
Full
Jul 29
Last Quarter

Hourly Weather History & Observations

Time (PDT) Temp. Heat Index Dew Point Humidity Pressure Visibility Wind Dir Wind Speed Gust Speed Precip Events Conditions
12:53 AM 63.0 °F - 45.0 °F 52% 29.77 in 10.0 mi South 6.9 mph - N/A   Clear
1:53 AM 60.1 °F - 46.0 °F 60% 29.78 in 10.0 mi SSW 4.6 mph - N/A   Clear
2:53 AM 54.0 °F - 46.9 °F 77% 29.78 in 10.0 mi South 3.5 mph - N/A   Clear
3:53 AM 54.0 °F - 48.0 °F 80% 29.80 in 10.0 mi South 4.6 mph - N/A   Clear
4:53 AM 53.1 °F - 48.0 °F 83% 29.81 in 10.0 mi Calm Calm - N/A   Clear
5:53 AM 55.0 °F - 48.9 °F 80% 29.82 in 10.0 mi Calm Calm - N/A   Clear
6:53 AM 64.9 °F - 50.0 °F 58% 29.83 in 10.0 mi Calm Calm - N/A   Clear
7:53 AM 71.1 °F - 52.0 °F 51% 29.84 in 10.0 mi West 4.6 mph - N/A   Clear
8:53 AM 73.0 °F - 54.0 °F 51% 29.84 in 10.0 mi WNW 4.6 mph - N/A   Clear
9:53 AM 77.0 °F - 53.1 °F 43% 29.83 in 10.0 mi SW 4.6 mph - N/A   Clear
10:53 AM 82.0 °F - 52.0 °F 35% 29.82 in 10.0 mi North 4.6 mph - N/A   Clear
11:53 AM 82.9 °F - 51.1 °F 33% 29.80 in 10.0 mi Variable 4.6 mph - N/A   Clear
12:53 PM 87.1 °F 84.9 °F 53.1 °F 31% 29.78 in 10.0 mi Variable 3.5 mph - N/A   Clear
1:53 PM 91.0 °F - 48.9 °F 23% 29.76 in 10.0 mi Variable 4.6 mph - N/A   Clear
2:53 PM 91.0 °F - 43.0 °F 19% 29.75 in 10.0 mi Variable 3.5 mph - N/A   Clear
3:53 PM 93.0 °F - 42.1 °F 17% 29.73 in 10.0 mi Calm Calm - N/A   Clear
4:53 PM 93.0 °F - 42.1 °F 17% 29.71 in 10.0 mi WNW 6.9 mph - N/A   Clear
5:53 PM 93.0 °F - 37.9 °F 15% 29.70 in 10.0 mi NW 6.9 mph - N/A   Clear
6:53 PM 91.9 °F - 37.0 °F 15% 29.69 in 10.0 mi NW 3.5 mph - N/A   Clear
7:53 PM 91.0 °F - 37.0 °F 15% 29.69 in 10.0 mi Calm Calm - N/A   Clear
8:53 PM 75.0 °F - 55.0 °F 50% 29.71 in 10.0 mi Calm Calm - N/A   Clear
9:53 PM 79.0 °F - 46.9 °F 32% 29.73 in 10.0 mi West 10.4 mph - N/A   Clear
10:53 PM 75.0 °F - 48.0 °F 38% 29.75 in 10.0 mi SW 11.5 mph - N/A   Clear
11:53 PM 73.0 °F - 53.1 °F 49% 29.79 in 10.0 mi NNW 5.8 mph - N/A   Clear